• In Spain
  • List of Countries
  • For 7 days
  • Water Temperature
  • Satellite Maps
  • Weather Map
  • Weather Widgets
  • user-avatar
    Login

    Hourly Weather Canillo

    Today, 22 February, Thursday

    Time Temperature Precipitation Wind Pressure Humidity
    00:00 -12°C° 0 mm 4 mps 608 mmHg 79%
    01:00 -12°C° 0 mm 4 mps 608 mmHg 78%
    02:00 -12°C° 0 mm 3 mps 608 mmHg 78%
    03:00 -12°C° 0 mm 3 mps 607 mmHg 77%
    04:00 -12°C° 0 mm 3 mps 607 mmHg 77%
    05:00 -12°C° 0 mm 3 mps 607 mmHg 77%
    06:00 -12°C° 0 mm 3 mps 607 mmHg 77%
    07:00 -10°C° 0 mm 3 mps 608 mmHg 73%
    08:00 -10°C° 0 mm 4 mps 608 mmHg 69%
    09:00 -9°C° 0 mm 4 mps 609 mmHg 65%
    10:00 -8°C° 0 mm 4 mps 609 mmHg 62%
    11:00 -7°C° 0 mm 4 mps 609 mmHg 59%
    12:00 -5°C° 0 mm 4 mps 609 mmHg 55%
    13:00 -5°C° 0 mm 4 mps 609 mmHg 57%
    14:00 -5°C° 0 mm 4 mps 609 mmHg 58%
    15:00 -5°C° 0 mm 4 mps 609 mmHg 59%
    16:00 -7°C° 0.1 mm 3 mps 608 mmHg 65%
    17:00 -8°C° 0.1 mm 3 mps 608 mmHg 71%
    18:00 -9°C° 0.1 mm 3 mps 608 mmHg 76%
    19:00 -10°C° 0 mm 3 mps 608 mmHg 77%
    20:00 -10°C° 0 mm 3 mps 608 mmHg 78%
    21:00 -10°C° 0 mm 2 mps 608 mmHg 78%
    22:00 -10°C° 0 mm 2 mps 608 mmHg 78%
    23:00 -10°C° 0 mm 2 mps 607 mmHg 77%

    Tomorrow, 23 February, Friday

    Time Temperature Precipitation Wind Pressure Humidity
    00:00 -12°C° 0 mm 2 mps 607 mmHg 76%
    01:00 -12°C° 0 mm 2 mps 607 mmHg 75%
    02:00 -12°C° 0 mm 2 mps 607 mmHg 75%
    03:00 -12°C° 0 mm 2 mps 607 mmHg 74%
    04:00 -12°C° 0 mm 2 mps 607 mmHg 73%
    05:00 -12°C° 0 mm 2 mps 606 mmHg 73%
    06:00 -12°C° 0 mm 2 mps 606 mmHg 72%
    07:00 -10°C° 0 mm 2 mps 607 mmHg 67%
    08:00 -8°C° 0 mm 2 mps 608 mmHg 61%
    09:00 -6°C° 0 mm 2 mps 609 mmHg 56%
    10:00 -5°C° 0 mm 2 mps 609 mmHg 54%
    11:00 -3°C° 0 mm 2 mps 610 mmHg 52%
    12:00 0°C° 0 mm 1 mps 610 mmHg 49%
    13:00 -2°C° 0 mm 2 mps 610 mmHg 51%
    14:00 -2°C° 0 mm 2 mps 610 mmHg 53%
    15:00 -2°C° 0 mm 2 mps 609 mmHg 55%
    16:00 -2°C° 0 mm 1 mps 609 mmHg 63%
    17:00 -4°C° 0 mm 1 mps 608 mmHg 72%
    18:00 -7°C° 0 mm 0 mps 607 mmHg 80%
    19:00 -8°C° 0 mm 1 mps 607 mmHg 80%
    20:00 -8°C° 0 mm 1 mps 607 mmHg 79%
    21:00 -8°C° 0 mm 1 mps 607 mmHg 79%
    22:00 -9°C° 0 mm 1 mps 607 mmHg 78%
    23:00 -9°C° 0 mm 1 mps 607 mmHg 77%

    Day after tomorrow, 24 February, Saturday

    Time Temperature Precipitation Wind Pressure Humidity
    00:00 -9°C° 0 mm 1 mps 607 mmHg 76%
    01:00 -9°C° 0 mm 1 mps 607 mmHg 74%
    02:00 -9°C° 0 mm 1 mps 607 mmHg 72%
    03:00 -9°C° 0 mm 1 mps 607 mmHg 70%
    04:00 -9°C° 0 mm 1 mps 607 mmHg 67%
    05:00 -9°C° 0 mm 1 mps 607 mmHg 63%
    06:00 -9°C° 0 mm 1 mps 607 mmHg 60%
    07:00 -7°C° 0 mm 1 mps 608 mmHg 55%
    08:00 -5°C° 0 mm 0 mps 609 mmHg 50%
    09:00 -3°C° 0 mm 0 mps 610 mmHg 45%
    10:00 -1°C° 0 mm 1 mps 610 mmHg 45%
    11:00 +1°C° 0 mm 1 mps 611 mmHg 44%
    12:00 +2°C° 0 mm 1 mps 611 mmHg 44%
    13:00 +2°C° 0 mm 1 mps 611 mmHg 45%
    14:00 +2°C° 0 mm 1 mps 611 mmHg 47%
    15:00 +2°C° 0 mm 1 mps 611 mmHg 49%
    16:00 0°C° 0 mm 1 mps 610 mmHg 58%
    17:00 -2°C° 0 mm 1 mps 609 mmHg 67%
    18:00 -6°C° 0 mm 0 mps 609 mmHg 76%
    19:00 -6°C° 0 mm 0 mps 609 mmHg 76%
    20:00 -6°C° 0 mm 1 mps 609 mmHg 77%
    21:00 -7°C° 0 mm 1 mps 609 mmHg 78%
    22:00 -7°C° 0 mm 1 mps 609 mmHg 77%
    23:00 -7°C° 0 mm 1 mps 609 mmHg 76%

    25 February, Sunday

    Time Temperature Precipitation Wind Pressure Humidity
    00:00 -7°C° 0 mm 1 mps 609 mmHg 75%
    01:00 -7°C° 0 mm 1 mps 609 mmHg 75%
    02:00 -7°C° 0 mm 1 mps 609 mmHg 74%
    03:00 -7°C° 0 mm 1 mps 609 mmHg 74%
    04:00 -7°C° 0 mm 1 mps 609 mmHg 73%
    05:00 -8°C° 0 mm 2 mps 609 mmHg 72%
    06:00 -8°C° 0 mm 2 mps 609 mmHg 71%
    07:00 -4°C° 0 mm 1 mps 610 mmHg 63%
    08:00 -2°C° 0 mm 1 mps 611 mmHg 55%
    09:00 0°C° 0 mm 1 mps 612 mmHg 48%
    10:00 +1°C° 0 mm 1 mps 613 mmHg 47%
    11:00 +2°C° 0 mm 1 mps 613 mmHg 47%
    12:00 +2°C° 0 mm 2 mps 613 mmHg 47%
    13:00 +3°C° 0 mm 2 mps 613 mmHg 49%
    14:00 +3°C° 0 mm 2 mps 613 mmHg 51%
    15:00 +3°C° 0 mm 2 mps 612 mmHg 54%
    16:00 +1°C° 0 mm 2 mps 612 mmHg 62%
    17:00 -2°C° 0 mm 2 mps 611 mmHg 69%
    18:00 -4°C° 0 mm 2 mps 610 mmHg 77%
    19:00 -5°C° 0 mm 2 mps 610 mmHg 78%
    20:00 -5°C° 0 mm 2 mps 610 mmHg 78%
    21:00 -6°C° 0 mm 2 mps 610 mmHg 79%
    22:00 -6°C° 0 mm 2 mps 610 mmHg 77%
    23:00 -6°C° 0 mm 2 mps 610 mmHg 74%

    26 February, Monday

    Time Temperature Precipitation Wind Pressure Humidity
    00:00 -6°C° 0 mm 2 mps 610 mmHg 72%
    01:00 -6°C° 0 mm 2 mps 609 mmHg 70%
    02:00 -7°C° 0 mm 2 mps 609 mmHg 68%
    03:00 -7°C° 0 mm 2 mps 609 mmHg 66%
    04:00 -7°C° 0 mm 2 mps 608 mmHg 65%
    05:00 -7°C° 0 mm 2 mps 608 mmHg 64%
    06:00 -8°C° 0 mm 2 mps 608 mmHg 62%
    07:00 -6°C° 0 mm 2 mps 609 mmHg 59%
    08:00 -4°C° 0 mm 2 mps 609 mmHg 56%
    09:00 -2°C° 0 mm 2 mps 610 mmHg 53%
    10:00 -1°C° 0 mm 2 mps 611 mmHg 51%
    11:00 +1°C° 0 mm 2 mps 611 mmHg 50%
    12:00 +2°C° 0 mm 2 mps 611 mmHg 48%
    13:00 +2°C° 0 mm 2 mps 611 mmHg 50%
    14:00 +2°C° 0 mm 2 mps 610 mmHg 52%
    15:00 +2°C° 0 mm 2 mps 610 mmHg 54%
    16:00 +1°C° 0 mm 1 mps 609 mmHg 63%
    17:00 -2°C° 0 mm 1 mps 608 mmHg 73%
    18:00 -4°C° 0 mm 1 mps 607 mmHg 82%
    19:00 -4°C° 0 mm 1 mps 607 mmHg 83%
    20:00 -4°C° 0 mm 1 mps 608 mmHg 85%
    21:00 -4°C° 0 mm 1 mps 608 mmHg 86%
    22:00 -4°C° 0 mm 1 mps 608 mmHg 86%
    23:00 -4°C° 0 mm 1 mps 607 mmHg 86%

    27 February, Tuesday

    Time Temperature Precipitation Wind Pressure Humidity
    00:00 -4°C° 0 mm 1 mps 607 mmHg 85%
    01:00 -6°C° 0 mm 1 mps 607 mmHg 85%
    02:00 -6°C° 0 mm 1 mps 607 mmHg 85%
    03:00 -6°C° 0 mm 1 mps 607 mmHg 84%
    04:00 -6°C° 0 mm 1 mps 607 mmHg 83%
    05:00 -6°C° 0 mm 1 mps 607 mmHg 83%
    06:00 -6°C° 0 mm 1 mps 607 mmHg 82%
    07:00 -4°C° 0.1 mm 1 mps 607 mmHg 78%
    08:00 -3°C° 0.1 mm 1 mps 608 mmHg 74%
    09:00 -3°C° 0.1 mm 1 mps 608 mmHg 69%
    10:00 -2°C° 0.1 mm 1 mps 609 mmHg 66%
    11:00 -1°C° 0.1 mm 1 mps 609 mmHg 63%
    12:00 0°C° 0.1 mm 1 mps 610 mmHg 60%
    13:00 0°C° 0.1 mm 1 mps 610 mmHg 61%
    14:00 0°C° 0.1 mm 1 mps 610 mmHg 62%
    15:00 -2°C° 0.1 mm 2 mps 610 mmHg 62%
    16:00 -1°C° 0.1 mm 1 mps 610 mmHg 67%
    17:00 -2°C° 0.1 mm 1 mps 609 mmHg 71%
    18:00 -4°C° 0.1 mm 1 mps 609 mmHg 75%
    19:00 -4°C° 0.1 mm 1 mps 610 mmHg 76%
    20:00 -4°C° 0.1 mm 1 mps 610 mmHg 77%
    21:00 -4°C° 0.1 mm 1 mps 610 mmHg 79%
    22:00 -4°C° 0 mm 1 mps 610 mmHg 79%
    23:00 -4°C° 0 mm 1 mps 610 mmHg 80%
    Show more